Date String (YYYY-MM-DD hh:mm:ss) UTC,Instrument flags,Ambient pressure (hPa),Sample flow (lpm),Bypass flow (lpm),Sample temperature (°C),Ambient temperature (°C),ASC tube jacket temperature (°C),LED temperature (°C),Box temperature (°C),Sample RH (%),Span deviation,Mass concentration (μg/m³),Mass concentration (μg/m³),Mass concentration (μg/m³)
DateTimeUTC,F1_M11,P_M11,Q1_M11,Q2_M11,T1_M11,T2_M11,T3_M11,T4_M11,T5_M11,U1_M11,ZSPAN_M11,X2_M11,X0_M11,X1_M11
2022-01-02 18:00:00,,0828.4,5.01,0.00,24.7,24.0,00.0,33.5,26.6,07.5,0000.0,0000.05,0000.13,0000.00
2022-01-02 18:01:00,,0828.4,5.00,0.00,24.7,24.1,00.0,33.5,26.6,07.6,0000.0,0000.05,0000.13,0000.00
2022-01-02 18:02:00,,0828.3,5.00,0.00,24.7,24.1,00.0,33.5,26.6,07.7,0000.0,0000.05,0000.13,0000.00
2022-01-02 18:03:00,,0828.3,5.01,0.00,24.7,24.1,00.0,33.5,26.6,08.4,0000.0,0000.05,0000.13,0000.00
2022-01-02 18:04:00,,0828.3,4.99,0.00,24.8,24.1,00.0,33.6,26.6,08.9,0000.0,0000.05,0000.16,0000.00
2022-01-02 18:05:00,,0828.3,5.00,0.00,24.8,24.2,00.0,33.6,26.6,08.6,0000.0,0000.06,0000.21,0000.00
2022-01-02 18:06:00,,0828.3,5.00,0.00,24.8,24.2,00.0,33.6,26.7,08.7,0000.0,0000.05,0000.48,0000.00
2022-01-02 18:07:00,,0828.3,4.99,0.00,24.8,24.2,00.0,33.6,26.7,08.7,0000.0,0000.05,0000.59,0000.00
2022-01-02 18:08:00,,0828.2,5.02,0.00,24.8,24.2,00.0,33.6,26.7,08.6,0000.0,0000.06,0000.62,0000.01
2022-01-02 18:09:00,,0828.2,4.99,0.00,24.8,24.2,00.0,33.7,26.7,08.3,0000.0,0000.06,0000.63,0000.01
2022-01-02 18:10:00,,0828.2,4.99,0.00,24.9,24.2,00.0,33.7,26.7,08.6,0000.0,0000.05,0000.58,0000.01
2022-01-02 18:11:00,,0828.3,5.02,0.00,24.9,24.3,00.0,33.7,26.7,08.5,0000.0,0000.05,0000.58,0000.01
2022-01-02 18:12:00,,0828.2,4.99,0.00,24.9,24.3,00.0,33.7,26.8,08.4,0000.0,0000.05,0000.88,0000.01
2022-01-02 18:13:00,,0828.2,5.00,0.00,24.9,24.3,00.0,33.7,26.8,08.5,0000.0,0000.05,0001.16,0000.01
2022-01-02 18:14:00,,0828.3,5.00,0.00,24.9,24.3,00.0,33.8,26.8,08.6,0000.0,0000.05,0001.16,0000.01
2022-01-02 18:15:00,,0828.3,5.00,0.00,24.9,24.3,00.0,33.8,26.8,08.6,0000.0,0000.06,0001.21,0000.01
2022-01-02 18:16:00,,0828.3,5.00,0.00,25.0,24.4,00.0,33.8,26.8,08.7,0000.0,0000.05,0001.19,0000.01
2022-01-02 18:17:00,,0828.2,5.00,0.00,25.0,24.4,00.0,33.8,26.8,08.9,0000.0,0000.04,0000.85,0000.01
2022-01-02 18:18:00,,0828.2,5.00,0.00,25.0,24.4,00.0,33.8,26.9,08.7,0000.0,0000.06,0000.81,0000.01
2022-01-02 18:19:00,,0828.3,4.99,0.00,25.0,24.4,00.0,33.9,26.9,08.6,0000.0,0000.09,0000.89,0000.01
2022-01-02 18:20:00,,0828.3,5.01,0.00,25.1,24.4,00.0,33.9,26.9,08.7,0000.0,0000.10,0000.92,0000.01
2022-01-02 18:21:00,,0828.3,4.99,0.00,25.1,24.5,00.0,33.9,27.0,09.1,0000.0,0000.11,0000.94,0000.02
2022-01-02 18:22:00,,0828.3,5.00,0.00,25.1,24.5,00.0,33.9,27.0,08.9,0000.0,0000.11,0000.94,0000.02
2022-01-02 18:23:00,,0828.3,4.98,0.00,25.1,24.5,00.0,33.9,27.0,09.1,0000.0,0000.10,0000.61,0000.02
2022-01-02 18:24:00,,0828.3,5.01,0.00,25.1,24.6,00.0,34.0,27.0,09.5,0000.0,0000.10,0000.36,0000.02
2022-01-02 18:25:00,,0828.3,4.98,0.00,25.2,24.6,00.0,34.0,27.1,09.8,0000.0,0000.11,0000.39,0000.02
2022-01-02 18:26:00,,0828.3,5.01,0.00,25.2,24.6,00.0,34.0,27.1,10.0,0000.0,0000.11,0000.43,0000.02
2022-01-02 18:27:00,,0828.3,4.99,0.00,25.2,24.7,00.0,34.0,27.1,10.0,0000.0,0000.12,0000.42,0000.02
2022-01-02 18:28:00,,0828.3,5.00,0.00,25.2,24.7,00.0,34.0,27.1,09.9,0000.0,0000.11,0000.42,0000.02
2022-01-02 18:29:00,,0828.3,5.00,0.00,25.2,24.7,00.0,34.1,27.2,09.8,0000.0,0000.09,0000.33,0000.02
2022-01-02 18:30:00,,0828.2,4.99,0.00,25.3,24.7,00.0,34.1,27.2,09.8,0000.0,0000.07,0000.26,0000.01
2022-01-02 18:31:00,,0828.2,4.99,0.00,25.3,24.7,00.0,34.1,27.2,09.6,0000.0,0000.06,0000.23,0000.01
2022-01-02 18:32:00,,0828.2,4.99,0.00,25.3,24.8,00.0,34.1,27.2,09.5,0000.0,0000.05,0000.24,0000.01
2022-01-02 18:33:00,,0828.2,5.02,0.00,25.3,24.8,00.0,34.1,27.2,09.4,0000.0,0000.07,0000.40,0000.01
2022-01-02 18:34:00,,0828.5,4.99,0.00,25.4,24.7,00.0,34.2,27.2,09.4,0000.0,0000.07,0000.40,0000.01
2022-01-02 18:35:00,,0828.4,5.00,0.00,25.4,24.8,00.0,34.2,27.3,09.5,0000.0,0000.07,0000.39,0000.01
2022-01-02 18:36:00,,0828.4,4.99,0.00,25.4,24.8,00.0,34.2,27.3,10.0,0000.0,0000.06,0000.36,0000.01
2022-01-02 18:37:00,,0828.2,5.00,0.00,25.4,24.8,00.0,34.2,27.3,10.2,0000.0,0000.05,0000.23,0000.01
2022-01-02 18:38:00,,0828.4,5.01,0.00,25.5,24.9,00.0,34.3,27.4,10.4,0000.0,0000.05,0000.23,0000.01
2022-01-02 18:39:00,,0828.2,4.98,0.00,25.5,24.9,00.0,34.3,27.4,10.4,0000.0,0000.05,0000.23,0000.01
2022-01-02 18:40:00,,0828.2,5.01,0.00,25.5,24.9,00.0,34.3,27.4,10.6,0000.0,0000.05,0000.24,0000.01
2022-01-02 18:41:00,,0828.2,4.99,0.00,25.5,25.0,00.0,34.3,27.4,10.8,0000.0,0000.05,0000.26,0000.01
2022-01-02 18:42:00,,0828.2,5.01,0.00,25.5,25.0,00.0,34.4,27.4,10.6,0000.0,0000.04,0000.26,0000.01
2022-01-02 18:43:00,,0828.2,4.99,0.00,25.6,25.0,00.0,34.4,27.5,10.5,0000.0,0000.05,0001.74,0000.01
2022-01-02 18:44:00,,0828.2,4.99,0.00,25.6,25.0,00.0,34.4,27.5,10.3,0000.0,0000.05,0001.87,0000.01
2022-01-02 18:45:00,,0828.2,5.02,0.00,25.6,25.0,00.0,34.4,27.5,10.3,0000.0,0000.06,0001.93,0000.01
2022-01-02 18:46:00,,0828.2,4.99,0.00,25.7,25.0,00.0,34.4,27.5,10.3,0000.0,0000.06,0002.01,0000.01
2022-01-02 18:47:00,,0828.2,5.01,0.00,25.7,25.0,00.0,34.4,27.5,10.4,0000.0,0000.07,0002.04,0000.01
2022-01-02 18:48:00,,0828.1,5.01,0.00,25.7,25.0,00.0,34.5,27.6,10.4,0000.0,0000.08,0002.15,0000.01
2022-01-02 18:49:00,,0828.2,5.00,0.00,25.7,25.0,00.0,34.5,27.6,10.5,0000.0,0000.08,0002.15,0000.01
2022-01-02 18:50:00,,0828.1,4.99,0.00,25.7,25.1,00.0,34.5,27.6,10.6,0000.0,0000.08,0002.15,0000.01
2022-01-02 18:51:00,,0828.1,5.01,0.00,25.8,25.1,00.0,34.5,27.6,10.3,0000.0,0000.07,0002.13,0000.01
2022-01-02 18:52:00,,0828.2,4.99,0.00,25.8,25.2,00.0,34.6,27.7,10.4,0000.0,0000.06,0002.09,0000.01
2022-01-02 18:53:00,,0828.1,5.01,0.00,25.8,25.2,00.0,34.6,27.7,10.7,0000.0,0000.07,0003.12,0000.01
2022-01-02 18:54:00,,0828.2,4.99,0.00,25.8,25.2,00.0,34.6,27.7,10.6,0000.0,0000.07,0002.96,0000.01
2022-01-02 18:55:00,,0828.2,5.01,0.00,25.9,25.2,00.0,34.6,27.7,10.4,0000.0,0000.07,0003.16,0000.01
2022-01-02 18:56:00,,0828.1,4.99,0.00,25.9,25.2,00.0,34.7,27.8,10.0,0000.0,0000.06,0003.10,0000.01
2022-01-02 18:57:00,,0828.2,5.02,0.00,25.9,25.3,00.0,34.7,27.8,10.0,0000.0,0000.06,0003.03,0000.01
2022-01-02 18:58:00,,0828.1,5.00,0.00,26.0,25.3,00.0,34.7,27.8,10.0,0000.0,0000.06,0003.03,0000.01
2022-01-02 18:59:00,,0828.1,5.01,0.00,26.0,25.3,00.0,34.7,27.9,10.1,0000.0,0000.05,0002.93,0000.01
